Regional Weather Roundup
Issued by NWS State College, PA

Home | Current Version | Previous Version | Text Only | Print | Product List | Glossary On
Versions: 1 2 3 4 5 6 7 8 9 10 11 12 13 14 15 16 17 18 19 20 21 22 23 24 25 26 27 28 29 30 31 32 33 34 35 36 37 38 39 40 41 42 43 44 45 46 47 48 49 50
000
ASUS41 KCTP 251903
RWRCTP

REGIONAL WEATHER ROUNDUP
NATIONAL WEATHER SERVICE STATE COLLEGE PA
300 PM EDT WED MAY 25 2016

Note: "fair" indicates few or no clouds below 12,000 feet with no
significant weather and/or obstructions to visibility.

* = STATION THAT DOES NOT REPORT PRECIPITATION /E.G. RAIN...SNOW...ETC/
    THUNDER OR FOG.

PAZ002>004-007>009-013>016-020>023-029>032-252000-
WESTERN PENNSYLVANIA

CITY           SKY/WX    TMP DP  RH WIND       PRES   REMARKS
ERIE           SUNNY     80  55  42 W12       30.11F
MEADVILLE      SUNNY     79  49  34 SW9       30.14S
FRANKLIN*      SUNNY     81  48  32 S9        30.17F
NEW CASTLE     FAIR      82  50  32 VRB7      30.14F
BEAVER COUNTY  SUNNY     81  52  36 S8        30.15F
BUTLER*        SUNNY     81  48  32 SW6       30.18F
PITTSBURGH INT MOSUNNY   80  47  31 S8G16     30.15F
PITTSBURGH     SUNNY     79  46  31 W10G18    30.16F
INDIANA*       SUNNY     79  52  38 W7G15     30.19F
LATROBE        MOSUNNY   77  54  44 SW12      30.18F
WASHINGTON CO* SUNNY     79  52  38 CALM      30.17F
$$

PAZ004>006-010>012-017>019-024>028-033>037-041-042-045-046-049>053-252000-
CENTRAL PENNSYLVANIA

CITY           SKY/WX    TMP DP  RH WIND       PRES   REMARKS
BRADFORD       PTSUNNY   79  43  27 VRB6      30.15F
DUBOIS         SUNNY     79  49  34 W10       30.16F
CLEARFIELD     SUNNY     81  47  30 W12G18    30.15F
JOHNSTOWN      SUNNY     77  47  34 SW10G23   30.19F
ALTOONA        SUNNY     82  46  28 NW5       30.16F
STATE COLLEGE  SUNNY     82  52  34 W12       30.13F
WILLIAMSPORT   SUNNY     87  46  24 SW12      30.06F
SELINSGROVE    SUNNY     86  48  26 VRB6      30.09F
FT INDIANTOWN  CLOUDY    85  48  27 W12       30.10S
CAPITAL CITY   MOSUNNY   85  49  28 SW8       30.10S
HARRISBURG     CLOUDY    84  50  30 W7        30.09F
YORK           PTSUNNY   84  51  31 W8        30.12S
$$

PAZ038>040-043-044-047-048-054-055-060>062-067>071-252000-
EASTERN PENNSYLVANIA

CITY           SKY/WX    TMP DP  RH WIND       PRES   REMARKS
SCRANTON       SUNNY     85  48  27 SW9G16    30.08F
MOUNT POCONO   SUNNY     75  40  28 MISG      30.12F
ALLENTOWN      SUNNY     86  46  24 VRB5      30.07F
QUAKERTOWN*    CLEAR     84  46  26 W6        30.10S
READING        SUNNY     86  49  27 W8        30.08F
LANCASTER      MOSUNNY   84  51  31 NW13      30.10F
COATESVILLE    PTCLDY    82  48  30 W12       30.13F
POTTSTOWN      MOSUNNY   83  49  30 W8        30.10F
BLUE BELL      MOSUNNY   82  52  34 SW7       30.08F
DOYLESTOWN     SUNNY     83  39  21 SW8       30.08S
WILLOW GROVE   NOT AVBL
NORTH PHILA    SUNNY     86  48  26 W8        30.09S
PHILADELPHIA   PTSUNNY   86  41  20 W16G22    30.08F
$$




USA.gov is the U.S. government's official web portal to all federal, state and local government web resources and services.